TimeCST,TemperatureF,Dew PointF,Humidity,Sea Level PressureIn,VisibilityMPH,Wind Direction,Wind SpeedMPH,Gust SpeedMPH,PrecipitationIn,Events,Conditions,WindDirDegrees,DateUTC
12:53 AM,34.0,28.9,82,29.97,10.0,NNW,12.7,-,N/A,,Overcast,340,2013-02-27 06:53:00
1:53 AM,30.9,25.0,79,30.02,10.0,North,10.4,-,N/A,,Overcast,360,2013-02-27 07:53:00
2:53 AM,30.0,25.0,82,30.04,10.0,NNW,10.4,-,N/A,,Mostly Cloudy,330,2013-02-27 08:53:00
3:53 AM,28.0,23.0,81,30.05,10.0,NW,10.4,-,N/A,,Scattered Clouds,310,2013-02-27 09:53:00
4:53 AM,30.0,25.0,82,30.07,10.0,NNW,17.3,-,N/A,,Clear,330,2013-02-27 10:53:00
5:53 AM,30.9,25.0,79,30.09,10.0,NNW,18.4,-,N/A,,Clear,340,2013-02-27 11:53:00
6:53 AM,30.9,25.0,79,30.13,10.0,NNW,18.4,-,N/A,,Clear,330,2013-02-27 12:53:00
7:53 AM,30.9,25.0,79,30.15,10.0,NW,18.4,-,N/A,,Clear,320,2013-02-27 13:53:00
9:53 AM,37.0,28.0,70,30.20,10.0,NNW,23.0,28.8,N/A,,Mostly Cloudy,330,2013-02-27 15:53:00
10:53 AM,39.9,28.9,65,30.19,10.0,NNW,26.5,34.5,N/A,,Partly Cloudy,330,2013-02-27 16:53:00
11:53 AM,43.0,26.1,51,30.21,10.0,NNW,21.9,31.1,N/A,,Partly Cloudy,340,2013-02-27 17:53:00
12:53 PM,45.0,24.1,44,30.19,10.0,North,25.3,32.2,N/A,,Partly Cloudy,350,2013-02-27 18:53:00
1:53 PM,46.0,21.9,39,30.17,10.0,North,27.6,33.4,N/A,,Partly Cloudy,350,2013-02-27 19:53:00
2:53 PM,46.0,21.0,37,30.18,10.0,North,21.9,33.4,N/A,,Clear,360,2013-02-27 20:53:00
3:53 PM,46.9,18.0,32,30.17,10.0,North,27.6,35.7,N/A,,Clear,360,2013-02-27 21:53:00
4:53 PM,46.0,19.0,34,30.17,10.0,NNW,18.4,27.6,N/A,,Partly Cloudy,340,2013-02-27 22:53:00
5:53 PM,44.1,17.1,34,30.19,10.0,North,17.3,-,N/A,,Clear,360,2013-02-27 23:53:00
6:53 PM,39.0,19.0,45,30.22,10.0,North,10.4,-,N/A,,Clear,350,2013-02-28 00:53:00
7:53 PM,34.0,19.9,56,30.25,10.0,North,8.1,-,N/A,,Clear,350,2013-02-28 01:53:00
8:53 PM,30.9,19.9,64,30.26,10.0,NW,6.9,-,N/A,,Clear,320,2013-02-28 02:53:00
9:53 PM,32.0,19.0,59,30.26,10.0,NW,8.1,-,N/A,,Clear,310,2013-02-28 03:53:00
10:53 PM,30.9,19.0,61,30.26,10.0,NW,8.1,-,N/A,,Clear,310,2013-02-28 04:53:00
11:53 PM,30.0,19.0,64,30.26,10.0,WNW,9.2,-,N/A,,Clear,300,2013-02-28 05:53:00